This is the latest recevied weather packets stored in our database for station/object G0TGD-10. If no packets are shown the sender has not sent any weather packets the latest 10 day(s).
| Time | Temp. | Humidity | Pressure | Rain* | Wind** | Luminosity | Snow |
|---|---|---|---|---|---|---|---|
| 1777827063 | 13.33° C | 75% | 1009.2 hPa | - | - | - | - |
| 1777826162 | 13.89° C | 74% | 1009 hPa | - | - | - | - |
| 1777825380 | 14.44° C | 74% | 1008.9 hPa | - | - | - | - |
| 1777825262 | 14.44° C | 74% | 1008.9 hPa | - | - | - | - |
| 1777824362 | 15° C | 74% | 1008.7 hPa | - | - | - | - |
| 1777823462 | 15.56° C | 74% | 1008.7 hPa | - | - | - | - |
| 1777822562 | 16.11° C | 74% | 1008.6 hPa | - | - | - | - |
| 1777821662 | 16.11° C | 74% | 1008.5 hPa | - | - | - | - |
| 1777820762 | 15.56° C | 76% | 1008.3 hPa | - | - | - | - |
| 1777819862 | 16.11° C | 75% | 1008.3 hPa | - | - | - | - |
| 1777818962 | 16.11° C | 76% | 1008.4 hPa | - | - | - | - |
| 1777818062 | 16.11° C | 76% | 1008.3 hPa | - | - | - | - |
| 1777817162 | 15° C | 77% | 1008.3 hPa | - | - | - | - |
| 1777816261 | 13.89° C | 78% | 1008.4 hPa | - | - | - | - |
| 1777815361 | 13.33° C | 79% | 1008.5 hPa | - | - | - | - |
| 1777814461 | 13.33° C | 79% | 1008.5 hPa | - | - | - | - |
| 1777813561 | 13.33° C | 78% | 1008.4 hPa | - | - | - | - |
| 1777812661 | 13.33° C | 78% | 1008.5 hPa | - | - | - | - |
| 1777811761 | 13.89° C | 77% | 1008.3 hPa | - | - | - | - |
| 1777810861 | 13.89° C | 76% | 1008.3 hPa | - | - | - | - |
| 1777809961 | 14.44° C | 76% | 1008.2 hPa | - | - | - | - |
| 1777809061 | 15° C | 74% | 1008.1 hPa | - | - | - | - |
| 1777808161 | 14.44° C | 74% | 1008.1 hPa | - | - | - | - |
| 1777807261 | 14.44° C | 73% | 1008.2 hPa | - | - | - | - |
| 1777806361 | 14.44° C | 74% | 1008.1 hPa | - | - | - | - |
* Rain since midnight (hover to see other rain measurements)
** Current wind speed in m/s (hover to see current wind gust speed)